Content
SEND FEEDBACK

Daily
Averages
Monthly
Summary
United States of America

ANN ARBOR, MICHIGAN


Home > North America > United States > Michigan
Elevation: 759 feet     Latitude: 42 17N     Longitude: 083 43W

WEATHER
 
SELECT A DAY
Number of Records: 203,747;   Date Range: 1/1/95 - 8/17/14
 
SHARE

PRINT THIS DATA

[ ← Previous Day ]
WEATHER ALMANAC - NOVEMBER 21, 2013
[ Next Day → ]
[ °C ]   °F
Weather ElementAverageHighLow
Temperature43.9 °F46.9 °F (1:53 pm)39 °F (1:53 am)
Dewpoint39 °F43 °F (4:53 pm)28 °F (1:53 am)
Humidity83.5 %96 % (5:53 pm)63 % (2:53 am)
Barometer30.23 in30.29 in (10:53 am)30.17 in (11:21 pm)
Wind Speed6.3 mph13.8 mph (9:53 am)
Wind Gust18.4 mph (9:53 am)
Weather ElementAverage
Visibility7.3 mi
Wind DirectionSSE (165.3 °)

Weather ElementTotal
Precipitation0.32 in
Heating Degree Days22.1 (Base 65)
Averaged from 32 records on November 21, 2013
WEATHER CONDITIONS BREAKOUT
WIND DIRECTION BREAKOUT
WEATHER BY HOUR - NOVEMBER 21, 2013
[ °C ]   °F
Local TimeTemperatureDewpointHumidityBarometerVisibilityWind DirectionWind SpeedGust SpeedPrecipitationEventsConditions
1:53 AM39.0 °F28.0 °F65 %30.28 in10.0 miCalmOvercast
2:53 AM39.9 °F28.0 °F63 %30.28 in10.0 miSouth (170°)4.6 mphOvercast
3:53 AM41.0 °F30.0 °F65 %30.28 in10.0 miSouth (190°)4.6 mphOvercast
4:53 AM39.9 °F30.9 °F70 %30.27 in10.0 miSE (130°)3.5 mphOvercast
5:53 AM41.0 °F30.9 °F67 %30.27 in10.0 miSouth (170°)3.5 mphOvercast
6:53 AM42.1 °F30.9 °F65 %30.26 in10.0 miSouth (170°)5.8 mphOvercast
7:53 AM43.0 °F32.0 °F65 %30.26 in10.0 miSouth (170°)8.1 mphOvercast
8:53 AM43.0 °F33.1 °F68 %30.27 in10.0 miSouth (190°)8.1 mphOvercast
9:53 AM44.1 °F36.0 °F73 %30.28 in10.0 miSSW (200°)13.8 mph18.4 mphOvercast
10:53 AM43.0 °F39.0 °F86 %30.29 in10.0 miSSW (200°)9.2 mphOvercast
11:41 AM44.6 °F39.2 °F81 %30.25 in10.0 miSSW (200°)9.2 mphOvercast
11:53 AM45.0 °F39.9 °F82 %30.27 in10.0 miSSW (200°)10.4 mphOvercast
12:44 PM44.6 °F41.0 °F87 %30.24 in10.0 miSSW (210°)11.5 mphOvercast
12:53 PM46.0 °F41.0 °F83 %30.25 in10.0 miSouth (190°)9.2 mphOvercast
1:00 PM46.4 °F42.8 °F87 %30.23 in10.0 miSouth (190°)8.1 mphOvercast
1:53 PM46.9 °F42.1 °F83 %30.22 in10.0 miSouth (190°)10.4 mphOvercast
2:37 PM46.4 °F42.8 °F87 %30.19 in10.0 miSouth (190°)9.2 mphOvercast
2:53 PM46.9 °F42.1 °F83 %30.22 in10.0 miSSW (200°)6.9 mphOvercast
3:53 PM46.0 °F42.1 °F86 %30.22 in10.0 miSouth (190°)8.1 mphOvercast
4:29 PM44.6 °F42.8 °F93 %30.22 in5.0 miSouth (190°)4.6 mph0.00 inRainLight Rain
4:53 PM45.0 °F43.0 °F93 %30.24 in3.0 miSouth (190°)5.8 mph0.02 inRainLight Rain
5:53 PM44.1 °F43.0 °F96 %30.23 in4.0 miSouth (170°)5.8 mph0.05 inRainLight Rain
6:53 PM44.1 °F42.1 °F93 %30.22 in3.0 miSouth (190°)5.8 mph0.03 inRainLight Rain
7:14 PM44.6 °F42.8 °F93 %30.20 in4.0 miSouth (190°)8.1 mph0.01 inRainLight Rain
7:53 PM44.1 °F43.0 °F96 %30.23 in3.0 miSSW (200°)6.9 mph0.03 inRainLight Rain
8:53 PM44.1 °F43.0 °F96 %30.22 in3.0 miSSW (200°)8.1 mph0.07 inRainLight Rain
9:53 PM44.1 °F43.0 °F96 %30.20 in4.0 miSSW (210°)4.6 mph0.04 inRainLight Rain
10:53 PM44.1 °F43.0 °F96 %30.19 in3.0 miCalm0.03 inRainLight Rain
11:21 PM44.6 °F42.8 °F93 %30.17 in2.5 miCalm0.01 inRainLight Rain
11:35 PM44.6 °F42.8 °F93 %30.17 in3.0 miCalm0.01 inRainLight Rain
11:44 PM44.6 °F42.8 °F93 %30.17 in2.5 miSSW (200°)3.5 mph0.01 inRainLight Rain
11:53 PM44.1 °F43.0 °F96 %30.18 in2.5 miSSW (200°)4.6 mph0.01 inRainLight Rain
Hourly data recorded from KARB, located miles away from Ann Arbor, Michigan







STORIES FROM OUR PARTNERS